EW4276 Weather Reports


Display with metric or nautical units.
time (UTC)temp
F
wind
direction
speed
MPH
gust
MPH
rain 1hr
in
rain 24hr
in
rain mn
in
humidity
%
barometer
mb
20260901095827 76 171 2.0 6.0 0.00 0.00 0.00 78 1018.2
20260901095319 76 170 3.0 6.0 0.00 0.00 0.00 79 1018.2
20260901094830 76 171 2.0 5.0 0.00 0.00 0.00 79 1018.2
20260901094321 75 182 2.0 6.0 0.00 0.00 0.00 79 1018.2
20260901093853 75 180 1.0 6.0 0.00 0.00 0.00 79 1018.2
20260901093328 75 171 2.0 5.0 0.00 0.00 0.00 80 1018.2
20260901092820 75 178 3.0 5.0 0.00 0.00 0.00 80 1018.1
20260901092331 75 173 2.0 5.0 0.00 0.00 0.00 80 1018.1
20260901091823 75 173 3.0 6.0 0.00 0.00 0.00 80 1018.1
20260901091315 75 165 3.0 6.0 0.00 0.00 0.00 80 1018.1
20260901090827 75 165 3.0 7.0 0.00 0.00 0.00 80 1018.0
20260901090320 75 185 4.0 6.0 0.00 0.00 0.00 80 1018.1
20260901085829 75 167 3.0 5.0 0.00 0.00 0.00 80 1018.1
20260901085325 75 178 3.0 6.0 0.00 0.00 0.00 80 1018.1
20260901084817 75 176 3.0 6.0 0.00 0.00 0.00 79 1018.1
20260901084329 76 180 3.0 5.0 0.00 0.00 0.00 79 1018.0
20260901083820 76 175 4.0 6.0 0.00 0.00 0.00 79 1018.1
20260901083332 76 169 4.0 6.0 0.00 0.00 0.00 79 1018.1
20260901082824 76 176 5.0 7.0 0.00 0.00 0.00 79 1018.2
20260901082316 75 184 3.0 5.0 0.00 0.00 0.00 79 1018.1
20260901081827 75 174 3.0 5.0 0.00 0.00 0.00 80 1018.2
20260901081323 75 171 4.0 6.0 0.00 0.00 0.00 80 1018.2
20260901080814 75 193 4.0 7.0 0.00 0.00 0.00 80 1018.2
20260901080327 75 169 3.0 9.0 0.00 0.00 0.00 80 1018.2
20260901075817 75 167 5.0 9.0 0.00 0.00 0.00 81 1018.3
20260901075329 75 167 4.0 7.0 0.00 0.00 0.00 82 1018.3
20260901074821 75 167 4.0 7.0 0.00 0.00 0.00 82 1018.3
20260901074332 74 142 4.0 7.0 0.00 0.00 0.00 82 1018.4
20260901073823 74 150 4.0 6.0 0.00 0.00 0.00 82 1018.3
20260901073319 74 178 3.0 6.0 0.00 0.00 0.00 82 1018.3
20260901072831 74 182 4.0 5.0 0.00 0.00 0.00 83 1018.3
20260901072323 74 178 3.0 5.0 0.00 0.00 0.00 83 1018.3
20260901071814 74 166 3.0 6.0 0.00 0.00 0.00 82 1018.3
20260901071327 74 178 2.0 6.0 0.00 0.00 0.00 82 1018.3
20260901070818 74 175 3.0 4.0 0.00 0.00 0.00 82 1018.2
20260901070331 74 173 2.0 4.0 0.00 0.00 0.00 82 1018.2
20260901065821 75 176 1.0 4.0 0.00 0.00 0.00 82 1018.4
20260901065317 75 173 1.0 4.0 0.00 0.00 0.00 82 1018.4
20260901064830 75 172 1.0 5.0 0.00 0.00 0.00 82 1018.4
20260901064342 75 164 2.0 5.0 0.00 0.00 0.00 81 1018.4
20260901063814 75 161 2.0 6.0 0.00 0.00 0.00 81 1018.5
20260901063325 75 167 3.0 6.0 0.00 0.00 0.00 81 1018.5
20260901062817 75 171 3.0 5.0 0.00 0.00 0.00 81 1018.6
20260901062329 76 174 3.0 7.0 0.00 0.00 0.00 80 1018.7
20260901061841 76 173 4.0 7.0 0.00 0.00 0.00 80 1018.7
20260901061331 76 180 4.0 6.0 0.00 0.00 0.00 80 1018.7
20260901060823 76 179 4.0 6.0 0.00 0.00 0.00 80 1018.8
20260901060338 76 173 3.0 5.0 0.00 0.00 0.00 80 1018.8
20260901055828 76 178 4.0 6.0 0.00 0.00 0.00 80 1018.9
20260901055320 76 169 3.0 4.0 0.00 0.00 0.00 80 1018.9
20260901054832 76 175 3.0 5.0 0.00 0.00 0.00 79 1018.9
20260901054324 76 169 3.0 6.0 0.00 0.00 0.00 79 1018.9
20260901053816 76 169 4.0 6.0 0.00 0.00 0.00 79 1018.9
20260901053328 76 150 3.0 5.0 0.00 0.00 0.00 78 1019.0
20260901052819 76 161 2.0 6.0 0.00 0.00 0.00 78 1019.0
20260901052315 76 172 3.0 6.0 0.00 0.00 0.00 79 1019.1
20260901051827 76 184 3.0 7.0 0.00 0.00 0.00 79 1019.0
20260901051319 76 161 4.0 7.0 0.00 0.00 0.00 79 1019.0
20260901050831 76 186 4.0 7.0 0.00 0.00 0.00 79 1019.1
20260901050324 76 188 3.0 5.0 0.00 0.00 0.00 78 1019.1
20260901045813 76 172 3.0 5.0 0.00 0.00 0.00 78 1019.0
20260901045325 76 163 3.0 5.0 0.00 0.00 0.00 78 1019.1
20260901044816 76 182 2.0 5.0 0.00 0.00 0.00 78 1019.1
20260901044328 76 174 3.0 6.0 0.00 0.00 0.00 78 1019.1
20260901043844 77 167 2.0 6.0 0.00 0.00 0.00 78 1019.1
20260901043315 76 185 4.0 6.0 0.00 0.00 0.00 78 1019.1
20260901042827 76 162 4.0 5.0 0.00 0.00 0.00 79 1019.2
20260901042318 76 178 4.0 5.0 0.00 0.00 0.00 79 1019.1
20260901041831 77 178 3.0 5.0 0.00 0.00 0.00 78 1019.1
20260901041321 77 184 3.0 6.0 0.00 0.00 0.00 78 1019.3
20260901040833 77 191 3.0 6.0 0.00 0.00 0.00 78 1019.3
20260901040325 76 190 2.0 5.0 0.00 0.00 0.00 79 1019.4
20260901035820 76 184 2.0 6.0 0.00 0.00 0.00 79 1019.3
20260901035351 76 175 3.0 4.0 0.00 0.00 0.00 80 1019.3
20260901034821 76 171 2.0 4.0 0.00 0.00 0.00 80 1019.4
20260901034313 76 169 2.0 5.0 0.00 0.00 0.00 81 1019.5
20260901033846 76 180 2.0 5.0 0.00 0.00 0.00 82 1019.4
20260901033317 76 165 3.0 4.0 0.00 0.00 0.00 82 1019.5
20260901032829 76 173 3.0 5.0 0.00 0.00 0.00 82 1019.6
20260901032321 76 171 2.0 5.0 0.00 0.00 0.00 82 1019.6
20260901031832 76 176 3.0 4.0 0.00 0.00 0.00 82 1019.6
20260901031324 76 167 2.0 5.0 0.00 0.00 0.00 83 1019.7
20260901030840 76 182 4.0 5.0 0.00 0.00 0.00 83 1019.7
20260901030331 76 161 3.0 6.0 0.00 0.00 0.00 84 1019.7
20260901025841 76 157 3.0 6.0 0.00 0.00 0.00 84 1019.7
20260901025331 76 172 2.0 5.0 0.00 0.00 0.00 84 1019.7
20260901024823 76 156 2.0 5.0 0.00 0.00 0.00 83 1019.8
20260901024314 76 173 2.0 6.0 0.00 0.00 0.00 83 1019.8
20260901023826 76 161 2.0 4.0 0.00 0.00 0.00 82 1019.8
20260901023317 76 174 2.0 5.0 0.00 0.00 0.00 82 1019.7
20260901022829 76 179 2.0 5.0 0.00 0.00 0.00 81 1019.7
20260901022325 76 174 2.0 4.0 0.00 0.00 0.00 82 1019.7
20260901021838 76 173 1.0 3.0 0.00 0.00 0.00 82 1019.7
20260901021329 76 175 2.0 3.0 0.00 0.00 0.00 82 1019.8
20260901020822 76 172 1.0 3.0 0.00 0.00 0.00 82 1019.8
20260901020333 76 174 0.0 6.0 0.00 0.00 0.00 82 1019.8
20260901015822 76 173 2.0 6.0 0.00 0.00 0.00 82 1019.8
20260901015314 76 178 2.0 5.0 0.00 0.00 0.00 83 1019.7
20260901014826 76 171 0.0 3.0 0.00 0.00 0.00 84 1019.7
20260901014318 77 178 0.0 3.0 0.00 0.00 0.00 82 1019.7
20260901013850 77 164 0.0 2.0 0.00 0.00 0.00 79 1019.6
20260901013324 77 177 0.0 2.0 0.00 0.00 0.00 79 1019.5
20260901012815 77 171 0.0 2.0 0.00 0.00 0.00 79 1019.4
20260901012347 77 170 0.0 3.0 0.00 0.00 0.00 78 1019.3
20260901011838 77 169 2.0 4.0 0.00 0.00 0.00 78 1019.2
20260901011329 76 161 2.0 4.0 0.00 0.00 0.00 79 1019.1
20260901010820 76 171 3.0 4.0 0.00 0.00 0.00 79 1019.0
20260901010352 76 170 3.0 5.0 0.00 0.00 0.00 79 1019.0
20260901005821 76 171 3.0 4.0 0.00 0.00 0.00 80 1019.0
20260901005333 76 167 2.0 4.0 0.00 0.00 0.00 81 1019.0
20260901004824 76 173 1.0 2.0 0.00 0.00 0.00 81 1018.9
20260901004320 76 171 0.0 0.0 0.00 0.00 0.00 81 1018.9
20260901003832 76 171 0.0 2.0 0.00 0.00 0.00 81 1018.9
20260901003323 76 171 0.0 3.0 0.00 0.00 0.00 81 1018.8
20260901002815 76 173 0.0 3.0 0.00 0.00 0.00 81 1018.7
20260901002327 76 173 0.0 0.0 0.00 0.00 0.00 82 1018.7
20260901001819 76 173 0.0 0.0 0.00 0.00 0.00 82 1018.7
20260901001332 76 173 0.0 0.0 0.00 0.00 0.00 83 1018.8
20260901000824 77 173 0.0 0.0 0.00 0.00 0.00 82 1018.9
20260901000321 77 173 0.0 1.0 0.00 0.00 0.00 82 1018.9
20260831235829 77 173 0.0 2.0 0.00 0.00 0.00 82 1018.9
20260831235342 77 173 0.0 2.0 0.00 0.00 0.00 82 1018.9
20260831234813 77 173 0.0 0.0 0.00 0.00 0.00 81 1018.9
20260831234325 78 173 0.0 0.0 0.00 0.00 0.00 81 1018.9
20260831233837 78 173 0.0 2.0 0.00 0.00 0.00 81 1018.9
20260831233329 78 173 1.0 2.0 0.00 0.00 0.00 81 1018.9
20260831232820 78 171 0.0 2.0 0.00 0.00 0.00 81 1018.9
20260831232333 79 171 0.0 2.0 0.00 0.00 0.00 80 1018.9
20260831231829 79 171 0.0 3.0 0.00 0.00 0.00 80 1019.0
20260831231320 79 171 0.0 3.0 0.00 0.00 0.00 80 1019.0
20260831230854 79 176 1.0 2.0 0.00 0.00 0.00 80 1019.0
20260831230324 79 171 0.0 2.0 0.00 0.00 0.00 81 1019.0
20260831225833 79 172 0.0 2.0 0.00 0.00 0.00 80 1019.1
20260831225324 79 172 0.0 2.0 0.00 0.00 0.00 79 1019.2
20260831224816 80 176 0.0 2.0 0.00 0.00 0.00 80 1019.2
20260831224327 80 175 0.0 3.0 0.00 0.00 0.00 79 1019.3
20260831223819 80 176 0.0 4.0 0.00 0.00 0.00 78 1019.2
20260831223315 80 187 2.0 6.0 0.00 0.00 0.00 78 1019.2
20260831222828 80 180 3.0 6.0 0.00 0.00 0.00 78 1019.2
20260831222340 80 175 2.0 5.0 0.00 0.00 0.00 78 1019.3
20260831221831 80 173 3.0 4.0 0.00 0.00 0.00 78 1019.3
20260831221323 80 168 2.0 4.0 0.00 0.00 0.00 79 1019.3
20260831220834 80 180 2.0 5.0 0.00 0.00 0.00 78 1019.3
20260831220325 80 178 2.0 5.0 0.00 0.00 0.00 78 1019.4
20260831215835 80 177 2.0 4.0 0.00 0.00 0.00 79 1019.4
20260831215346 80 170 2.0 3.0 0.00 0.00 0.00 79 1019.4
20260831214816 80 178 0.0 3.0 0.00 0.00 0.00 78 1019.5
20260831214328 80 188 0.0 0.0 0.00 0.00 0.00 78 1019.6
20260831213824 80 190 0.0 4.0 0.00 0.00 0.00 77 1019.7
20260831213316 80 194 0.0 4.0 0.00 0.00 0.00 76 1019.7
20260831212828 80 174 0.0 0.0 0.00 0.00 0.00 77 1019.6
20260831212319 80 173 0.0 4.0 0.00 0.00 0.00 76 1019.6
20260831211832 80 173 0.0 4.0 0.00 0.00 0.00 77 1019.6
20260831211324 80 171 0.0 4.0 0.00 0.00 0.00 76 1019.7
20260831210816 81 171 1.0 5.0 0.00 0.00 0.00 77 1019.6
20260831210328 81 187 2.0 5.0 0.00 0.00 0.00 75 1019.7
20260831205821 81 173 0.0 5.0 0.00 0.00 0.00 76 1019.7
20260831205313 81 174 1.0 5.0 0.00 0.00 0.00 76 1019.7
20260831204845 80 173 1.0 5.0 0.00 0.00 0.00 77 1019.7
20260831204316 80 167 0.0 4.0 0.00 0.00 0.00 77 1019.7
20260831203828 80 165 0.0 0.0 0.00 0.00 0.00 78 1019.8
20260831203320 80 165 0.0 0.0 0.00 0.00 0.00 78 1019.8
20260831202832 80 165 0.0 0.0 0.00 0.00 0.00 77 1019.9
20260831202324 80 165 0.0 0.0 0.00 0.00 0.00 77 1020.0
20260831201836 80 165 0.0 0.0 0.00 0.00 0.00 76 1020.1
20260831201331 80 166 0.0 0.0 0.00 0.00 0.00 78 1020.0
20260831200823 80 165 0.0 0.0 0.00 0.00 0.00 77 1020.0
20260831200314 80 166 0.0 0.0 0.00 0.00 0.00 77 1020.1
20260831195844 80 165 0.0 0.0 0.00 0.00 0.00 75 1020.0
20260831195335 80 176 0.0 4.0 0.00 0.00 0.00 75 1020.1
20260831194826 80 173 0.0 4.0 0.00 0.00 0.00 74 1020.1
20260831194318 80 173 0.0 3.0 0.00 0.00 0.00 74 1020.2
20260831193830 80 173 0.0 4.0 0.00 0.00 0.00 76 1020.2
20260831193321 80 165 1.0 4.0 0.00 0.00 0.00 74 1020.3
20260831192817 80 169 0.0 4.0 0.00 0.00 0.00 74 1020.3
20260831192350 80 173 2.0 4.0 0.00 0.00 0.00 74 1020.3
20260831191821 80 178 1.0 5.0 0.00 0.00 0.00 75 1020.3
20260831191313 80 182 3.0 5.0 0.00 0.00 0.00 74 1020.4
20260831190845 80 180 2.0 5.0 0.00 0.00 0.00 73 1020.4
20260831190317 80 163 0.0 4.0 0.00 0.00 0.00 76 1020.5
20260831185827 80 143 2.0 4.0 0.00 0.00 0.00 73 1020.5
20260831185319 80 27 0.0 1.0 0.00 0.00 0.00 77 1020.5
20260831184831 80 27 0.0 2.0 0.00 0.00 0.00 74 1020.6
20260831184322 80 302 0.0 3.0 0.00 0.00 0.00 75 1020.6
20260831183818 80 288 1.0 3.0 0.00 0.00 0.00 76 1020.6
20260831183330 80 294 0.0 2.0 0.00 0.00 0.00 76 1020.6
20260831182842 80 299 0.0 2.0 0.00 0.00 0.00 76 1020.6
20260831182333 80 306 0.0 2.0 0.00 0.00 0.00 75 1020.6
20260831181824 80 226 0.0 1.0 0.00 0.00 0.00 74 1020.7
20260831181316 80 191 0.0 0.0 0.00 0.00 0.00 73 1020.6
20260831180828 80 191 0.0 0.0 0.00 0.00 0.00 74 1020.6
20260831180320 79 192 0.0 1.0 0.00 0.00 0.00 73 1020.7
20260831175813 79 190 0.0 0.0 0.00 0.00 0.00 76 1020.7
20260831175326 79 190 0.0 0.0 0.00 0.00 0.00 78 1020.7
20260831174817 79 190 0.0 2.0 0.00 0.00 0.00 78 1020.7
20260831174349 79 190 1.0 2.0 0.00 0.00 0.00 78 1020.7
20260831173820 79 283 0.0 0.0 0.00 0.00 0.00 77 1020.7
20260831173332 79 297 0.0 0.0 0.00 0.00 0.00 77 1020.7
20260831172824 79 297 0.0 0.0 0.00 0.00 0.00 76 1020.7
20260831172316 79 297 0.0 0.0 0.00 0.00 0.00 75 1020.6
20260831171828 79 295 0.0 1.0 0.00 0.00 0.00 75 1020.7
20260831171323 80 265 0.0 1.0 0.00 0.00 0.00 77 1020.8
20260831170328 79 192 0.0 2.0 0.00 0.00 0.00 77 1020.9
20260831165819 79 192 0.0 3.0 0.00 0.00 0.00 76 1020.9
20260831165331 80 192 1.0 3.0 0.00 0.00 0.00 75 1020.9
20260831164821 80 202 0.0 0.0 0.00 0.00 0.00 76 1020.9
20260831164333 80 233 0.0 1.0 0.00 0.00 0.00 75 1021.0
20260831163824 80 221 0.0 5.0 0.00 0.00 0.00 75 1020.9
20260831163320 80 171 0.0 6.0 0.00 0.00 0.00 74 1020.9
20260831162813 80 167 1.0 4.0 0.00 0.00 0.00 74 1021.0
20260831162325 80 180 0.0 3.0 0.00 0.00 0.00 76 1021.0
20260831161817 80 179 0.0 3.0 0.00 0.00 0.00 77 1021.0
20260831161329 79 173 0.0 5.0 0.00 0.00 0.00 75 1020.9
20260831160821 79 170 2.0 5.0 0.00 0.00 0.00 77 1021.0
20260831160313 79 88 0.0 3.0 0.00 0.00 0.00 77 1021.1
20260831155824 78 142 0.0 3.0 0.00 0.00 0.00 77 1021.1
20260831155320 78 171 0.0 3.0 0.00 0.00 0.00 79 1021.1
20260831154832 78 122 0.0 4.0 0.00 0.00 0.00 78 1021.1
20260831154324 78 40 1.0 4.0 0.00 0.00 0.00 79 1021.1
20260831153836 78 163 0.0 3.0 0.00 0.00 0.00 77 1021.1
20260831153328 78 145 0.0 4.0 0.00 0.00 0.00 78 1021.2
20260831152840 77 46 0.0 4.0 0.00 0.00 0.00 80 1021.3
20260831152332 77 39 2.0 4.0 0.00 0.00 0.00 79 1021.3
20260831151823 77 13 3.0 4.0 0.00 0.00 0.00 79 1021.3
20260831151315 77 301 0.0 4.0 0.00 0.00 0.00 79 1021.4
20260831150826 77 13 2.0 3.0 0.00 0.00 0.00 79 1021.4
20260831150322 77 308 1.0 4.0 0.00 0.00 0.00 80 1021.4
20260831145813 77 13 1.0 4.0 0.00 0.00 0.00 79 1021.4
20260831145325 77 309 3.0 4.0 0.00 0.00 0.00 80 1021.4
20260831144838 77 360 3.0 4.0 0.00 0.00 0.00 80 1021.4
20260831144349 77 316 0.0 4.0 0.00 0.00 0.00 81 1021.3
20260831143820 77 315 1.0 4.0 0.00 0.00 0.00 79 1021.2
20260831143332 77 40 0.0 3.0 0.00 0.00 0.00 80 1021.1
20260831142823 76 305 1.0 4.0 0.00 0.00 0.00 81 1021.1
20260831142337 76 9 2.0 4.0 0.00 0.00 0.00 80 1021.1
20260831141827 76 292 2.0 3.0 0.00 0.00 0.00 80 1021.0
20260831141323 76 315 0.0 0.0 0.00 0.00 0.00 80 1021.1
20260831140814 76 360 0.0 0.0 0.00 0.00 0.00 80 1021.0
20260831140326 76 9 0.0 0.0 0.00 0.00 0.00 80 1021.1
20260831135837 76 360 0.0 2.0 0.00 0.00 0.00 81 1021.1
20260831135328 76 9 0.0 2.0 0.00 0.00 0.00 81 1021.1
20260831134820 76 284 1.0 3.0 0.00 0.00 0.00 81 1021.2
20260831134314 76 290 0.0 4.0 0.00 0.00 0.00 81 1021.3
20260831133826 76 290 1.0 4.0 0.00 0.00 0.00 79 1021.3
20260831133323 76 292 2.0 4.0 0.00 0.00 0.00 79 1021.3
20260831132815 77 15 1.0 4.0 0.00 0.00 0.00 78 1021.2
20260831132326 77 304 2.0 4.0 0.00 0.00 0.00 78 1021.3
20260831131818 77 310 2.0 3.0 0.00 0.00 0.00 80 1021.3
20260831131351 76 129 0.0 3.0 0.00 0.00 0.00 79 1021.3
20260831130821 76 64 1.0 3.0 0.00 0.00 0.00 83 1021.3
20260831130313 74 168 0.0 3.0 0.00 0.00 0.00 81 1021.2
20260831125823 74 170 1.0 4.0 0.00 0.00 0.00 83 1021.2
20260831124831 73 174 2.0 4.0 0.00 0.00 0.00 83 1021.2
20260831124322 73 167 2.0 5.0 0.00 0.00 0.00 83 1021.2
20260831123816 73 150 0.0 1.0 0.00 0.00 0.00 84 1021.2
20260831123328 72 175 0.0 0.0 0.00 0.00 0.00 84 1021.3
20260831122819 72 181 0.0 0.0 0.00 0.00 0.00 85 1021.2
20260831122332 71 174 0.0 2.0 0.00 0.00 0.00 85 1021.2
20260831121824 71 169 0.0 2.0 0.00 0.00 0.00 85 1021.0
20260831121316 71 182 0.0 1.0 0.00 0.00 0.00 86 1021.1
20260831120831 71 184 0.0 1.0 0.00 0.00 0.00 86 1021.0
20260831120323 70 288 0.0 2.0 0.00 0.00 0.00 87 1021.0
20260831115832 70 295 0.0 2.0 0.00 0.00 0.00 87 1020.9
20260831115324 70 179 0.0 0.0 0.00 0.00 0.00 88 1020.9
20260831114836 69 178 0.0 3.0 0.00 0.00 0.00 88 1020.9
20260831114327 69 178 0.0 3.0 0.00 0.00 0.00 87 1020.9
20260831113819 69 171 1.0 2.0 0.00 0.00 0.00 87 1020.8
20260831113331 69 166 0.0 1.0 0.00 0.00 0.00 87 1020.8
20260831112823 70 166 0.0 1.0 0.00 0.00 0.00 87 1020.7
20260831112318 69 166 0.0 1.0 0.00 0.00 0.00 87 1020.7
20260831111831 69 158 0.0 0.0 0.00 0.00 0.00 87 1020.7
20260831111322 69 158 0.0 0.0 0.00 0.00 0.00 87 1020.7
20260831110814 69 158 0.0 0.0 0.00 0.00 0.00 87 1020.6
20260831110326 69 158 0.0 1.0 0.00 0.00 0.00 87 1020.6
20260831105816 69 158 0.0 1.0 0.00 0.00 0.00 87 1020.5
20260831105328 69 153 0.0 0.0 0.00 0.00 0.00 86 1020.4
20260831104821 70 153 0.0 0.0 0.00 0.00 0.00 86 1020.4
20260831104316 70 153 0.0 0.0 0.00 0.00 0.00 86 1020.5
20260831103828 70 152 0.0 0.0 0.00 0.00 0.00 85 1020.4
20260831103320 70 153 0.0 0.0 0.00 0.00 0.00 85 1020.3
20260831102832 70 153 0.0 0.0 0.00 0.00 0.00 85 1020.4
20260831102323 70 153 0.0 0.0 0.00 0.00 0.00 85 1020.5
20260831101816 70 178 0.0 0.0 0.00 0.00 0.00 85 1020.4
20260831101329 70 179 0.0 0.0 0.00 0.00 0.00 85 1020.3
20260831100840 70 179 0.0 0.0 0.00 0.00 0.00 85 1020.2
20260831100352 70 179 0.0 2.0 0.00 0.00 0.00 86 1020.1